sat.trackr.live / text

‹ back to catalog

DMC3-FM2

NORAD 40716 · 2015-032B

PAYLOAD ACTIVE UNKNOWN

§ Identity

Operator
Country
UK
Launch date
2015-07-10
Launch site
SRILR
Launch vehicle
Mass (kg)
RCS (m²)
1.51

Purposes: earth_obs

External: N2YO · Heavens-Above · Gunter

§ Orbital elements

Epoch: 2026-09-15T22:36:49.169664Z

Period
96.92 min
Inclination
97.6364°
Eccentricity
0.0007341
Mean motion
14.85827957 rev/d
Perigee alt
605.9 km
Apogee alt
616.1 km
Semi-major
6,989.1 km
B*
3.9943e-5
RAAN
122.1359°
Arg perigee
112.0835°
Mean anomaly
248.1162°
Rev number
60,338

§ Raw data

DMC3-FM21 40716U 15032B   26258.94223576  .00000296  00000+0  39943-4 0  99982 40716  97.6364 122.1359 0007341 112.0835 248.1162 14.85827957603383

JSON: /api/v1/satellites/40716 · /tle

For live sub-satellite position, see the globe view (requires WebGL).

§ Visibility from observer

Set your observer location to see the next 7 days of passes ≥ 10°. The values pass through the URL so the page stays shareable.

No JS? Fill the form by hand. The geolocation button needs JavaScript.

§ Radio — SatNOGS DB

ModeDescriptionDownlinkUplink
FM Mode X (375MHz) 8.213 GHz
BPSK Telemetry 2.233 GHz

2 transmitters · refreshed weekly from db.satnogs.org